Location: Potawatomi Wildlife Park
(41.2308°N, 86.1050°W)
Time: 13:31:21
(UTC-04:00)

HST - Visible Passes

Search period start: 02 September 2014 00:00
Search period end: 12 September 2014 00:00
Orbit: 547 x 552 km, 28.5° (Epoch: 01 September)

Date Brightness Start Highest point End Pass type
(mag) Time Alt. Az. Time Alt. Az. Time Alt. Az.
07 Sep 3.0 21:13:19 10° S 21:14:30 11° SSE 21:15:16 11° SSE visible
08 Sep 2.9 21:05:39 10° SSW 21:07:23 12° S 21:08:46 11° SSE visible
09 Sep 3.0 20:58:15 10° SSW 21:00:16 13° S 21:02:11 10° SSE visible
10 Sep 3.0 20:50:59 10° SSW 20:53:10 14° S 20:55:20 10° SE visible
11 Sep 3.0 20:43:49 10° SSW 20:46:03 14° S 20:48:16 10° SSE visible
